{"data":{"norad_id":60385,"epoch":"2026-05-25T04:22:57.065952Z","epoch_age_seconds":58705,"freshness":"FRESH","line1":"1 60385U 24140G   26145.18260493  .00000421  00000+0  16437-3 0  9994","line2":"2 60385  88.9756 274.4779 0013905 214.1595 145.8705 14.27812667 93716","mean_motion":14.27812667,"eccentricity":0.0013905,"inclination_deg":88.9756,"raan_deg":274.4779,"arg_perigee_deg":214.1595,"mean_anomaly_deg":145.8705,"bstar":0.00016437,"rev_number":9371,"period_min":100.85356666751,"perigee_km":789.07164762641,"apogee_km":809.03140892355,"semimajor_km":7177.188528275,"source":"CELESTRAK","updated_at":"2026-05-25T13:38:02.040630Z"}}